Precipitable_Water
1.97 1.99 2.02 1.98 1.98 2.02 2.05 2.04 2.00 1.98 1.99 2.00 2.02 2.05 2.07 2.02 2.00 2.01 2.02 2.01 1.97 1.92 1.86 1.81 1.78 1.74 1.88 1.88 1.73 1.67 1.70 1.85 1.91 1.91 1.91 1.91 1.88 1.78 1.81 1.80 1.81 2.05 2.05 1.95 1.85 1.84 1.83 1.87 1.90 1.88 1.82 1.76 1.78 1.78 1.79 1.80 1.81 1.83 1.86 1.87 1.85 1.81 1.79 1.76 1.76 1.75 1.74 1.75 1.76 1.68 1.60 1.59 1.61 1.60 1.64 1.64 1.68 1.70 1.66 1.65 1.70 1.68 1.59 1.53 1.55
1.91 1.96 2.00 1.99 1.96 1.99 2.01 2.00 1.94 1.93 1.95 1.96 1.95 1.96 1.99 1.96 1.96 2.00 1.98 1.93 1.89 1.86 1.82 1.81 1.83 1.86 1.84 1.78 1.72 1.64 1.67 1.80 1.90 1.98 1.93 1.90 1.91 1.91 1.91 1.86 1.92 1.79 1.91 2.05 2.00 1.86 1.86 1.91 1.88 1.86 1.85 1.82 1.83 1.82 1.81 1.82 1.81 1.81 1.83 1.85 1.85 1.84 1.83 1.83 1.84 1.84 1.82 1.82 1.77 1.71 1.61 1.52 1.48 1.49 1.54 1.61 1.67 1.70 1.71 1.69 1.65 1.64 1.56 1.53 1.54
1.92 1.95 1.98 1.92 1.93 1.95 1.97 1.95 1.91 1.89 1.90 1.93 1.91 1.94 1.95 1.94 1.91 1.90 1.89 1.86 1.85 1.83 1.83 1.85 1.88 1.83 1.79 1.72 1.71 1.68 1.70 1.83 1.89 1.91 1.90 1.93 1.87 1.86 1.84 1.78 1.81 1.94 1.85 1.76 1.96 1.99 1.95 1.88 1.86 1.88 1.88 1.88 1.86 1.84 1.84 1.85 1.84 1.82 1.82 1.82 1.84 1.85 1.84 1.85 1.86 1.86 1.83 1.80 1.75 1.71 1.70 1.66 1.60 1.55 1.54 1.56 1.57 1.61 1.63 1.66 1.63 1.55 1.53 1.55 1.57
1.83 1.87 1.92 1.89 1.93 1.94 1.94 1.92 1.89 1.87 1.86 1.88 1.86 1.86 1.89 1.90 1.89 1.87 1.88 1.89 1.89 1.86 1.88 1.90 1.84 1.81 1.85 1.83 1.76 1.71 1.73 1.90 1.89 1.91 1.91 1.84 1.84 1.82 1.80 1.76 1.72 1.77 1.81 1.85 1.73 1.83 1.96 1.95 1.88 1.88 1.91 1.90 1.90 1.86 1.84 1.84 1.83 1.83 1.83 1.83 1.83 1.83 1.83 1.83 1.82 1.81 1.83 1.83 1.81 1.81 1.75 1.60 1.59 1.56 1.55 1.55 1.57 1.57 1.56 1.56 1.54 1.56 1.56 1.53 1.50
1.83 1.88 1.87 1.87 1.89 1.91 1.91 1.92 1.89 1.87 1.88 1.87 1.88 1.86 1.85 1.85 1.86 1.88 1.88 1.91 1.91 1.88 1.89 1.88 1.85 1.82 1.88 1.88 1.88 1.85 1.85 1.93 1.93 1.92 1.89 1.83 1.83 1.81 1.76 1.72 1.72 1.74 1.71 1.89 1.86 1.71 1.81 2.00 1.97 1.96 2.01 1.92 1.93 1.87 1.84 1.84 1.83 1.85 1.85 1.82 1.79 1.80 1.79 1.79 1.79 1.79 1.83 1.86 1.88 1.81 1.60 1.39 1.29 1.31 1.31 1.33 1.36 1.38 1.35 1.32 1.33 1.39 1.46 1.46 1.50
1.75 1.81 1.87 1.86 1.85 1.83 1.87 1.91 1.90 1.85 1.83 1.86 1.88 1.84 1.85 1.88 1.86 1.87 1.94 1.95 1.95 1.92 1.93 1.92 1.87 1.88 1.92 1.89 1.94 1.92 1.93 1.92 1.91 1.89 1.87 1.83 1.78 1.80 1.75 1.74 1.74 1.73 1.71 1.75 1.84 1.79 1.72 1.94 2.00 1.99 1.98 1.93 1.91 1.87 1.84 1.83 1.83 1.84 1.84 1.81 1.77 1.74 1.73 1.74 1.80 1.84 1.83 1.87 1.79 1.71 1.56 1.37 1.20 1.17 1.18 1.22 1.23 1.24 1.23 1.19 1.18 1.19 1.19 1.21 1.24
1.75 1.75 1.81 1.89 1.82 1.75 1.79 1.82 1.83 1.84 1.82 1.83 1.86 1.85 1.89 1.91 1.87 1.86 1.89 1.89 1.91 1.92 1.97 1.99 1.93 1.92 1.91 1.90 1.99 1.96 1.92 1.88 1.86 1.86 1.88 1.88 1.83 1.77 1.72 1.74 1.76 1.78 1.80 1.73 1.82 1.93 1.89 1.95 2.00 1.97 1.98 2.00 1.89 1.85 1.88 1.86 1.83 1.82 1.81 1.79 1.74 1.65 1.68 1.74 1.77 1.75 1.78 1.74 1.83 1.63 1.51 1.33 1.21 1.20 1.21 1.22 1.21 1.19 1.17 1.17 1.18 1.21 1.25 1.26 1.25
1.71 1.74 1.70 1.77 1.78 1.72 1.78 1.78 1.77 1.81 1.83 1.87 1.86 1.85 1.89 1.91 1.89 1.90 1.97 1.92 1.89 1.93 1.99 1.96 1.91 1.87 2.00 2.07 2.01 1.99 1.92 1.92 1.91 1.88 1.88 1.87 1.84 1.82 1.77 1.74 1.73 1.77 1.78 1.78 1.81 1.88 1.99 2.03 2.05 1.98 1.99 1.98 1.91 1.86 1.85 1.83 1.82 1.78 1.74 1.69 1.63 1.58 1.60 1.67 1.66 1.66 1.68 1.68 1.69 1.64 1.49 1.37 1.27 1.24 1.27 1.30 1.31 1.28 1.24 1.21 1.20 1.21 1.28 1.34 1.37
1.72 1.68 1.68 1.68 1.71 1.68 1.71 1.74 1.78 1.79 1.78 1.80 1.83 1.82 1.87 1.87 1.89 1.92 1.93 1.96 1.95 1.96 2.02 2.04 1.97 1.95 2.02 2.01 1.99 2.01 2.00 1.93 1.92 1.89 1.85 1.83 1.81 1.80 1.80 1.80 1.77 1.74 1.73 1.76 1.78 1.83 1.92 1.96 1.96 2.00 1.96 1.93 1.92 1.86 1.83 1.78 1.71 1.65 1.56 1.48 1.45 1.40 1.35 1.39 1.46 1.59 1.66 1.61 1.64 1.58 1.53 1.43 1.33 1.26 1.27 1.27 1.29 1.33 1.37 1.39 1.37 1.34 1.42 1.45 1.44
1.61 1.75 1.85 1.66 1.62 1.66 1.64 1.66 1.74 1.75 1.76 1.79 1.79 1.82 1.88 1.93 1.92 1.93 1.92 1.89 1.99 1.98 1.96 2.03 2.04 1.98 2.05 2.07 2.03 2.01 1.98 1.91 1.89 1.86 1.82 1.82 1.82 1.84 1.83 1.82 1.80 1.79 1.75 1.73 1.78 1.82 1.89 1.81 1.77 1.98 1.94 1.91 1.87 1.82 1.72 1.62 1.49 1.38 1.31 1.26 1.24 1.22 1.29 1.38 1.46 1.57 1.55 1.54 1.58 1.58 1.55 1.44 1.29 1.17 1.18 1.31 1.46 1.55 1.62 1.65 1.66 1.49 1.49 1.45 1.41
1.59 1.65 1.73 1.79 1.68 1.67 1.71 1.74 1.75 1.78 1.78 1.80 1.84 1.86 1.91 1.92 1.99 1.99 1.98 1.95 2.03 2.03 1.96 2.04 2.09 2.07 2.07 2.04 2.01 2.03 1.99 1.95 1.90 1.85 1.82 1.81 1.82 1.86 1.86 1.82 1.82 1.84 1.80 1.73 1.79 1.81 1.87 1.87 1.85 1.93 1.91 1.87 1.77 1.65 1.52 1.41 1.30 1.20 1.13 1.08 1.10 1.17 1.34 1.50 1.56 1.47 1.46 1.44 1.40 1.32 1.30 1.32 1.29 1.29 1.29 1.34 1.39 1.47 1.51 1.50 1.48 1.50 1.48 1.51 1.53
1.68 1.81 1.80 1.78 1.72 1.72 1.81 1.79 1.81 1.85 1.88 1.92 1.92 1.96 1.98 1.99 2.00 2.02 1.95 1.90 2.00 2.05 2.06 2.03 2.14 2.10 2.07 2.07 2.05 2.05 2.01 1.97 1.92 1.87 1.87 1.86 1.85 1.84 1.85 1.81 1.83 1.86 1.81 1.72 1.75 1.77 1.83 1.86 1.84 1.90 1.88 1.79 1.69 1.58 1.46 1.31 1.22 1.12 1.05 1.07 1.11 1.25 1.38 1.49 1.52 1.39 1.44 1.45 1.55 1.50 1.44 1.35 1.27 1.29 1.35 1.38 1.40 1.41 1.42 1.45 1.47 1.47 1.50 1.49 1.50
1.71 1.85 1.86 1.81 1.78 1.81 1.86 1.90 1.93 1.92 1.98 2.02 1.99 1.98 2.03 2.04 2.06 2.02 2.01 1.95 1.98 2.02 2.05 2.06 2.12 2.07 2.05 2.05 2.03 2.02 1.97 1.94 1.94 1.91 1.88 1.87 1.86 1.87 1.84 1.78 1.77 1.79 1.81 1.77 1.74 1.73 1.80 1.82 1.81 1.87 1.86 1.80 1.70 1.55 1.40 1.29 1.21 1.16 1.12 1.11 1.20 1.29 1.34 1.40 1.44 1.44 1.46 1.51 1.51 1.48 1.41 1.31 1.27 1.29 1.32 1.34 1.31 1.29 1.29 1.35 1.38 1.38 1.40 1.40 1.43
1.74 1.85 1.96 1.94 1.87 1.89 1.92 1.93 1.96 1.94 1.95 1.97 1.98 1.98 2.04 2.03 2.00 2.04 2.08 2.11 1.99 1.94 2.07 2.09 2.04 2.02 2.02 1.98 1.94 1.93 1.93 1.92 1.93 1.93 1.86 1.83 1.83 1.87 1.87 1.83 1.79 1.79 1.79 1.80 1.82 1.81 1.81 1.80 1.82 1.84 1.86 1.73 1.54 1.44 1.33 1.28 1.25 1.24 1.23 1.25 1.27 1.25 1.27 1.28 1.27 1.37 1.40 1.42 1.43 1.40 1.40 1.32 1.23 1.23 1.25 1.25 1.28 1.30 1.34 1.35 1.36 1.36 1.37 1.39 1.39
1.78 1.88 1.98 1.94 1.90 1.98 2.00 1.97 1.97 1.92 1.89 1.95 1.94 1.97 2.05 2.08 2.08 2.10 2.10 2.08 2.10 2.05 2.05 2.05 2.03 2.02 2.02 1.97 1.95 1.95 1.92 1.89 1.89 1.90 1.85 1.82 1.82 1.82 1.83 1.83 1.82 1.81 1.75 1.68 1.76 1.81 1.80 1.79 1.77 1.77 1.76 1.58 1.42 1.38 1.37 1.33 1.32 1.29 1.29 1.28 1.34 1.38 1.40 1.43 1.35 1.35 1.38 1.46 1.48 1.45 1.28 1.16 1.17 1.25 1.29 1.28 1.30 1.31 1.34 1.32 1.31 1.38 1.35 1.34 1.33
1.89 1.92 1.99 1.96 1.93 1.96 1.99 1.94 1.93 1.93 1.91 1.93 1.98 1.97 2.05 2.07 2.07 2.09 2.12 2.18 2.12 2.16 2.07 2.06 2.05 2.05 2.01 1.98 1.97 1.96 1.91 1.88 1.87 1.86 1.86 1.83 1.81 1.79 1.79 1.77 1.76 1.74 1.68 1.68 1.76 1.81 1.82 1.80 1.76 1.73 1.59 1.49 1.45 1.42 1.42 1.38 1.36 1.32 1.32 1.32 1.32 1.37 1.37 1.37 1.26 1.33 1.36 1.25 1.30 1.38 1.35 1.26 1.15 1.22 1.25 1.28 1.27 1.28 1.28 1.22 1.23 1.26 1.27 1.26 1.29
1.92 2.03 1.91 1.89 1.91 1.95 1.97 2.01 2.02 1.90 1.87 1.94 1.99 2.01 2.02 2.06 2.03 2.08 2.12 2.15 2.14 2.13 2.08 2.05 2.02 2.02 1.95 1.91 1.95 1.94 1.94 1.93 1.90 1.87 1.83 1.80 1.78 1.77 1.78 1.79 1.78 1.75 1.72 1.68 1.76 1.79 1.80 1.77 1.74 1.59 1.46 1.44 1.46 1.43 1.42 1.40 1.35 1.35 1.30 1.28 1.25 1.35 1.43 1.40 1.38 1.31 1.17 1.29 1.38 1.42 1.39 1.21 1.11 1.19 1.23 1.24 1.24 1.22 1.20 1.25 1.32 1.35 1.32 1.30 1.27
1.95 2.01 2.04 1.96 2.02 1.94 1.93 2.02 2.00 1.98 1.91 1.97 2.04 2.05 2.05 2.00 2.06 2.06 2.11 2.09 2.11 2.09 2.08 2.05 2.05 2.00 1.92 1.93 1.96 1.94 1.93 1.89 1.83 1.79 1.80 1.78 1.76 1.73 1.69 1.69 1.68 1.63 1.61 1.63 1.67 1.71 1.71 1.64 1.52 1.44 1.42 1.43 1.40 1.40 1.39 1.37 1.34 1.31 1.26 1.26 1.37 1.42 1.47 1.45 1.40 1.29 1.15 1.41 1.36 1.41 1.33 1.23 1.12 1.12 1.14 1.14 1.19 1.23 1.27 1.30 1.31 1.32 1.26 1.25 1.30
1.92 2.01 1.99 2.01 1.92 2.03 1.98 2.02 2.04 2.07 2.02 2.07 2.07 2.03 2.04 2.08 2.07 2.07 2.07 2.05 2.05 2.08 2.05 2.08 2.02 1.95 1.92 1.95 1.92 1.89 1.86 1.80 1.74 1.65 1.59 1.67 1.72 1.69 1.65 1.58 1.56 1.56 1.55 1.55 1.55 1.53 1.51 1.49 1.43 1.45 1.44 1.41 1.40 1.38 1.33 1.33 1.30 1.27 1.30 1.39 1.49 1.55 1.57 1.62 1.44 1.26 1.45 1.40 1.44 1.29 1.20 1.08 1.12 1.17 1.18 1.20 1.22 1.23 1.26 1.29 1.31 1.31 1.34 1.38 1.42
1.87 1.90 1.97 1.91 1.91 2.04 2.00 1.94 2.05 2.11 2.08 2.07 2.06 2.07 2.03 2.05 2.05 2.06 2.06 2.06 2.05 2.00 1.99 2.01 1.99 1.99 1.94 1.86 1.82 1.81 1.78 1.74 1.66 1.57 1.47 1.50 1.60 1.59 1.53 1.47 1.43 1.44 1.43 1.42 1.36 1.38 1.39 1.41 1.42 1.41 1.42 1.39 1.34 1.31 1.31 1.25 1.27 1.30 1.40 1.50 1.52 1.57 1.53 1.59 1.37 1.47 1.33 1.32 1.43 1.21 1.08 1.08 1.11 1.16 1.20 1.20 1.24 1.28 1.35 1.40 1.41 1.42 1.42 1.45 1.47
1.79 1.79 1.86 1.93 1.93 1.93 1.96 1.93 2.00 2.04 2.10 2.02 2.02 2.05 2.03 2.05 2.05 2.05 2.05 2.05 2.06 2.00 2.00 1.97 2.00 1.90 1.83 1.82 1.87 1.89 1.77 1.60 1.47 1.42 1.42 1.46 1.47 1.45 1.41 1.36 1.31 1.29 1.28 1.27 1.30 1.31 1.36 1.35 1.37 1.36 1.34 1.28 1.22 1.24 1.25 1.26 1.28 1.37 1.46 1.48 1.52 1.57 1.55 1.54 1.42 1.34 1.38 1.43 1.28 1.04 1.05 1.12 1.18 1.21 1.22 1.23 1.28 1.34 1.39 1.43 1.45 1.47 1.46 1.46 1.47
1.70 1.75 1.76 1.80 1.78 1.84 1.96 1.92 1.93 1.98 2.00 1.98 2.02 2.04 2.04 2.04 2.05 2.01 2.04 2.02 2.00 2.04 1.99 1.92 1.86 1.82 1.82 1.90 1.88 1.86 1.76 1.60 1.42 1.36 1.32 1.32 1.36 1.35 1.31 1.26 1.21 1.18 1.23 1.26 1.29 1.33 1.36 1.36 1.32 1.35 1.29 1.27 1.26 1.35 1.37 1.40 1.43 1.46 1.43 1.49 1.48 1.38 1.43 1.36 1.37 1.27 1.44 1.38 1.19 1.08 1.10 1.18 1.22 1.26 1.27 1.28 1.30 1.35 1.40 1.41 1.42 1.41 1.43 1.44 1.45
1.65 1.69 1.74 1.80 1.81 1.93 1.89 1.92 1.91 1.95 1.98 1.93 1.94 1.96 1.99 2.02 1.99 2.02 2.00 2.00 2.00 1.94 1.92 1.84 1.81 1.84 1.89 1.90 1.93 1.78 1.68 1.58 1.46 1.36 1.32 1.31 1.27 1.24 1.19 1.16 1.18 1.21 1.23 1.27 1.31 1.33 1.34 1.32 1.31 1.31 1.37 1.42 1.54 1.54 1.52 1.47 1.52 1.52 1.51 1.51 1.45 1.33 1.34 1.38 1.38 1.43 1.42 1.36 1.19 1.11 1.15 1.23 1.28 1.29 1.31 1.32 1.34 1.37 1.39 1.40 1.40 1.44 1.46 1.47 1.48
1.61 1.69 1.69 1.78 1.82 1.82 1.84 1.86 1.91 1.98 1.90 1.91 1.90 1.93 1.93 1.99 1.97 1.95 1.94 1.94 1.93 1.90 1.83 1.83 1.84 1.89 1.92 1.93 1.88 1.86 1.66 1.51 1.39 1.30 1.28 1.28 1.21 1.14 1.15 1.17 1.20 1.23 1.27 1.30 1.31 1.33 1.30 1.34 1.36 1.40 1.44 1.52 1.59 1.56 1.55 1.56 1.54 1.57 1.59 1.48 1.41 1.40 1.40 1.43 1.41 1.37 1.40 1.33 1.16 1.14 1.21 1.26 1.29 1.32 1.32 1.31 1.35 1.37 1.38 1.39 1.42 1.46 1.48 1.50 1.50
1.68 1.68 1.71 1.73 1.78 1.79 1.83 1.85 1.90 1.92 1.91 1.89 1.91 1.90 1.90 2.00 1.96 1.91 1.89 1.86 1.87 1.82 1.79 1.80 1.85 1.88 1.89 1.81 1.69 1.56 1.44 1.44 1.48 1.43 1.29 1.20 1.22 1.22 1.26 1.28 1.31 1.36 1.42 1.44 1.40 1.37 1.37 1.47 1.47 1.47 1.57 1.58 1.48 1.49 1.49 1.47 1.51 1.45 1.49 1.39 1.37 1.44 1.42 1.37 1.43 1.44 1.39 1.29 1.17 1.21 1.24 1.26 1.29 1.31 1.31 1.32 1.35 1.36 1.36 1.37 1.41 1.44 1.47 1.48 1.51
1.68 1.63 1.66 1.70 1.77 1.82 1.82 1.89 1.85 1.86 1.91 1.92 1.85 1.83 1.88 1.84 1.87 1.85 1.87 1.84 1.85 1.81 1.80 1.83 1.84 1.84 1.80 1.64 1.54 1.49 1.51 1.50 1.46 1.43 1.37 1.49 1.49 1.63 1.58 1.52 1.58 1.56 1.59 1.60 1.48 1.54 1.61 1.57 1.58 1.56 1.54 1.49 1.38 1.46 1.43 1.51 1.46 1.31 1.32 1.39 1.40 1.40 1.41 1.46 1.45 1.46 1.43 1.24 1.25 1.25 1.23 1.21 1.25 1.28 1.30 1.35 1.35 1.36 1.38 1.43 1.45 1.46 1.46 1.49 1.51
1.58 1.61 1.66 1.74 1.74 1.77 1.79 1.80 1.78 1.88 1.86 1.83 1.80 1.82 1.81 1.83 1.83 1.83 1.80 1.79 1.82 1.82 1.79 1.74 1.75 1.81 1.61 1.53 1.48 1.44 1.40 1.39 1.41 1.48 1.54 1.68 1.73 1.77 1.78 1.70 1.65 1.67 1.65 1.57 1.58 1.64 1.64 1.61 1.54 1.52 1.53 1.36 1.24 1.32 1.30 1.46 1.40 1.28 1.35 1.43 1.39 1.44 1.46 1.45 1.48 1.43 1.35 1.30 1.25 1.25 1.22 1.21 1.21 1.26 1.32 1.35 1.36 1.37 1.40 1.43 1.44 1.45 1.46 1.47 1.49
1.60 1.59 1.63 1.66 1.72 1.72 1.77 1.79 1.75 1.75 1.71 1.80 1.82 1.79 1.84 1.83 1.81 1.80 1.83 1.82 1.81 1.76 1.73 1.68 1.64 1.55 1.57 1.51 1.43 1.37 1.35 1.37 1.44 1.50 1.53 1.62 1.67 1.74 1.83 1.71 1.71 1.67 1.70 1.68 1.64 1.59 1.56 1.54 1.53 1.51 1.53 1.52 1.47 1.43 1.40 1.33 1.44 1.36 1.39 1.38 1.45 1.49 1.42 1.45 1.52 1.45 1.38 1.27 1.22 1.22 1.21 1.22 1.24 1.28 1.34 1.34 1.37 1.40 1.44 1.43 1.42 1.43 1.45 1.45 1.47
1.51 1.56 1.62 1.64 1.69 1.70 1.75 1.73 1.69 1.70 1.75 1.77 1.76 1.80 1.81 1.78 1.78 1.77 1.72 1.77 1.75 1.72 1.67 1.63 1.62 1.61 1.52 1.48 1.47 1.38 1.36 1.38 1.43 1.52 1.60 1.62 1.67 1.74 1.71 1.68 1.69 1.69 1.70 1.65 1.66 1.59 1.54 1.55 1.59 1.54 1.57 1.54 1.39 1.41 1.44 1.43 1.43 1.40 1.36 1.29 1.39 1.50 1.48 1.48 1.52 1.49 1.42 1.40 1.28 1.22 1.23 1.27 1.30 1.35 1.36 1.38 1.39 1.43 1.45 1.45 1.45 1.45 1.47 1.48 1.49
1.53 1.58 1.63 1.62 1.66 1.72 1.70 1.68 1.72 1.72 1.77 1.75 1.72 1.72 1.72 1.71 1.71 1.70 1.70 1.76 1.69 1.60 1.58 1.61 1.58 1.55 1.54 1.54 1.52 1.47 1.45 1.47 1.50 1.58 1.63 1.66 1.70 1.75 1.70 1.69 1.72 1.73 1.69 1.66 1.67 1.64 1.59 1.57 1.55 1.58 1.57 1.44 1.39 1.54 1.56 1.42 1.32 1.44 1.42 1.37 1.36 1.40 1.39 1.48 1.49 1.40 1.35 1.36 1.26 1.30 1.31 1.35 1.40 1.44 1.42 1.42 1.43 1.47 1.49 1.49 1.49 1.50 1.51 1.52 1.52
1.54 1.60 1.59 1.63 1.65 1.67 1.66 1.69 1.70 1.75 1.75 1.71 1.69 1.68 1.71 1.64 1.63 1.64 1.69 1.64 1.54 1.55 1.54 1.47 1.48 1.57 1.60 1.64 1.63 1.62 1.53 1.57 1.57 1.63 1.64 1.66 1.71 1.73 1.72 1.71 1.72 1.73 1.69 1.62 1.66 1.66 1.62 1.60 1.60 1.59 1.56 1.55 1.50 1.51 1.36 1.39 1.38 1.33 1.32 1.32 1.42 1.41 1.35 1.31 1.26 1.44 1.49 1.58 1.48 1.47 1.39 1.42 1.47 1.49 1.48 1.46 1.48 1.50 1.52 1.52 1.54 1.57 1.58 1.57 1.59
1.50 1.55 1.60 1.63 1.65 1.66 1.63 1.66 1.66 1.68 1.69 1.67 1.65 1.63 1.61 1.57 1.55 1.58 1.53 1.48 1.53 1.49 1.46 1.46 1.45 1.47 1.49 1.53 1.68 1.74 1.69 1.65 1.69 1.69 1.69 1.70 1.69 1.71 1.74 1.77 1.69 1.72 1.74 1.69 1.67 1.68 1.66 1.59 1.51 1.55 1.53 1.50 1.40 1.47 1.52 1.40 1.37 1.28 1.45 1.37 1.30 1.35 1.43 1.50 1.44 1.36 1.15 1.29 1.44 1.37 1.65 1.47 1.49 1.48 1.47 1.46 1.51 1.51 1.51 1.52 1.55 1.57 1.60 1.61 1.62
1.55 1.57 1.58 1.64 1.66 1.62 1.60 1.60 1.60 1.59 1.63 1.60 1.60 1.59 1.53 1.50 1.50 1.47 1.43 1.47 1.48 1.46 1.46 1.43 1.38 1.39 1.48 1.58 1.61 1.69 1.73 1.68 1.70 1.71 1.75 1.73 1.73 1.74 1.74 1.73 1.73 1.70 1.68 1.65 1.62 1.74 1.66 1.58 1.51 1.55 1.62 1.51 1.41 1.44 1.42 1.34 1.47 1.44 1.41 1.32 1.16 1.26 1.41 1.43 1.46 1.30 1.23 1.29 1.45 1.38 1.38 1.38 1.56 1.50 1.46 1.48 1.43 1.45 1.47 1.52 1.55 1.58 1.61 1.62 1.62
1.52 1.55 1.60 1.62 1.64 1.60 1.56 1.54 1.50 1.52 1.55 1.57 1.54 1.49 1.45 1.44 1.42 1.38 1.43 1.47 1.46 1.44 1.41 1.37 1.35 1.42 1.50 1.58 1.64 1.68 1.68 1.70 1.71 1.78 1.86 1.68 1.72 1.75 1.70 1.71 1.67 1.63 1.59 1.71 1.68 1.67 1.64 1.65 1.62 1.52 1.59 1.48 1.50 1.52 1.42 1.32 1.36 1.40 1.37 1.41 1.34 1.36 1.47 1.40 1.13 1.33 1.45 1.29 1.14 1.38 1.40 1.42 1.38 1.38 1.50 1.51 1.46 1.44 1.42 1.46 1.54 1.59 1.61 1.61 1.62
1.50 1.51 1.57 1.59 1.59 1.52 1.53 1.44 1.48 1.46 1.49 1.46 1.48 1.44 1.44 1.39 1.38 1.39 1.46 1.48 1.44 1.39 1.33 1.32 1.39 1.47 1.55 1.62 1.68 1.63 1.67 1.67 1.71 1.82 1.73 1.70 1.70 1.69 1.69 1.67 1.69 1.78 1.64 1.63 1.73 1.67 1.68 1.63 1.71 1.61 1.50 1.44 1.43 1.46 1.40 1.32 1.11 1.29 1.45 1.46 1.38 1.51 1.39 1.33 1.23 1.16 1.28 1.25 1.40 1.25 1.28 1.37 1.21 1.52 1.44 1.55 1.41 1.47 1.48 1.50 1.54 1.58 1.60 1.62 1.63
1.48 1.56 1.58 1.56 1.52 1.50 1.47 1.43 1.43 1.41 1.40 1.41 1.44 1.46 1.44 1.43 1.43 1.47 1.47 1.44 1.41 1.38 1.38 1.46 1.53 1.55 1.61 1.61 1.64 1.65 1.66 1.69 1.79 1.80 1.78 1.73 1.70 1.65 1.67 1.62 1.63 1.74 1.64 1.61 1.73 1.64 1.59 1.61 1.65 1.60 1.60 1.47 1.42 1.36 1.32 1.30 1.28 1.16 1.24 1.26 1.26 1.43 1.28 1.34 1.45 1.34 1.24 1.31 1.36 1.33 1.36 1.26 1.33 1.45 1.42 1.46 1.48 1.51 1.50 1.52 1.54 1.58 1.61 1.63 1.63
1.51 1.57 1.52 1.52 1.49 1.44 1.44 1.41 1.37 1.38 1.33 1.41 1.42 1.46 1.49 1.47 1.43 1.45 1.45 1.47 1.44 1.43 1.57 1.67 1.65 1.71 1.68 1.64 1.63 1.66 1.69 1.72 1.74 1.80 1.80 1.74 1.68 1.62 1.56 1.57 1.71 1.67 1.68 1.69 1.68 1.67 1.67 1.56 1.45 1.63 1.62 1.61 1.49 1.33 1.35 1.35 1.29 1.27 1.27 1.13 1.27 1.37 1.24 1.39 1.34 1.33 1.21 1.16 1.31 1.30 1.31 1.32 1.40 1.35 1.40 1.45 1.50 1.50 1.50 1.54 1.58 1.60 1.64 1.65 1.63
1.50 1.55 1.52 1.49 1.43 1.39 1.41 1.38 1.40 1.36 1.38 1.37 1.42 1.46 1.46 1.44 1.48 1.50 1.60 1.63 1.63 1.71 1.70 1.70 1.76 1.80 1.59 1.68 1.65 1.66 1.67 1.70 1.75 1.81 1.82 1.83 1.80 1.80 1.74 1.66 1.67 1.64 1.70 1.64 1.67 1.67 1.69 1.63 1.42 1.47 1.55 1.47 1.56 1.48 1.39 1.41 1.39 1.35 1.24 1.15 1.18 1.10 1.13 1.13 1.14 1.14 1.18 1.18 1.15 1.18 1.28 1.40 1.43 1.36 1.34 1.31 1.39 1.46 1.48 1.54 1.50 1.52 1.56 1.59 1.63
1.45 1.50 1.50 1.50 1.43 1.43 1.44 1.38 1.36 1.38 1.38 1.41 1.43 1.46 1.42 1.50 1.54 1.50 1.64 1.64 1.65 1.71 1.71 1.73 1.71 1.78 1.80 1.66 1.65 1.68 1.67 1.76 1.72 1.73 1.84 1.79 1.75 1.76 1.74 1.64 1.62 1.58 1.70 1.64 1.57 1.56 1.64 1.55 1.56 1.49 1.52 1.55 1.53 1.44 1.42 1.49 1.44 1.42 1.30 1.15 1.20 1.26 1.32 1.19 1.20 1.17 1.31 1.25 1.27 1.34 1.41 1.40 1.38 1.47 1.45 1.44 1.43 1.45 1.47 1.52 1.52 1.51 1.56 1.52 1.60
1.47 1.46 1.48 1.47 1.42 1.48 1.44 1.38 1.38 1.38 1.38 1.39 1.43 1.38 1.38 1.48 1.42 1.50 1.57 1.67 1.69 1.66 1.72 1.72 1.72 1.81 1.66 1.64 1.73 1.74 1.70 1.76 1.76 1.77 1.84 1.87 1.77 1.73 1.72 1.71 1.66 1.60 1.65 1.63 1.58 1.53 1.44 1.45 1.34 1.42 1.51 1.53 1.44 1.51 1.43 1.45 1.37 1.35 1.29 1.20 1.22 1.23 1.31 1.28 1.34 1.30 1.27 1.32 1.20 1.30 1.38 1.41 1.45 1.43 1.48 1.48 1.43 1.36 1.47 1.52 1.64 1.64 1.57 1.58 1.61
1.48 1.44 1.46 1.45 1.42 1.48 1.39 1.34 1.41 1.37 1.33 1.30 1.37 1.34 1.34 1.42 1.44 1.42 1.44 1.58 1.63 1.67 1.70 1.70 1.76 1.73 1.70 1.71 1.67 1.69 1.72 1.75 1.75 1.85 1.73 1.73 1.78 1.75 1.70 1.69 1.70 1.63 1.60 1.60 1.52 1.46 1.46 1.58 1.38 1.42 1.48 1.40 1.51 1.46 1.17 1.42 1.30 1.18 1.33 1.37 1.21 1.27 1.21 1.28 1.32 1.42 1.37 1.47 1.36 1.32 1.40 1.54 1.56 1.61 1.59 1.45 1.40 1.47 1.51 1.60 1.56 1.59 1.62 1.65 1.62
1.41 1.41 1.41 1.45 1.43 1.49 1.37 1.36 1.43 1.33 1.31 1.28 1.36 1.42 1.43 1.47 1.41 1.42 1.50 1.55 1.55 1.60 1.65 1.66 1.71 1.74 1.73 1.63 1.78 1.81 1.72 1.78 1.81 1.80 1.83 1.81 1.75 1.70 1.68 1.70 1.70 1.59 1.55 1.53 1.50 1.49 1.51 1.57 1.53 1.61 1.61 1.44 1.44 1.58 1.44 1.47 1.32 1.35 1.19 1.16 1.28 1.31 1.31 1.31 1.40 1.35 1.44 1.47 1.49 1.46 1.33 1.43 1.54 1.48 1.55 1.46 1.61 1.59 1.59 1.55 1.54 1.56 1.67 1.68 1.61
1.38 1.36 1.41 1.45 1.43 1.45 1.39 1.37 1.40 1.32 1.32 1.32 1.36 1.41 1.47 1.54 1.50 1.51 1.56 1.57 1.61 1.69 1.65 1.74 1.72 1.65 1.68 1.73 1.78 1.71 1.72 1.73 1.77 1.74 1.74 1.81 1.76 1.73 1.70 1.71 1.71 1.56 1.55 1.61 1.50 1.51 1.50 1.51 1.59 1.43 1.40 1.49 1.42 1.43 1.49 1.48 1.51 1.37 1.34 1.36 1.24 1.19 1.20 1.34 1.39 1.42 1.27 1.29 1.55 1.50 1.49 1.32 1.58 1.73 1.50 1.37 1.47 1.64 1.57 1.60 1.61 1.64 1.70 1.69 1.65
1.36 1.33 1.38 1.39 1.40 1.44 1.40 1.37 1.36 1.34 1.33 1.37 1.39 1.48 1.51 1.53 1.61 1.67 1.65 1.63 1.58 1.72 1.72 1.72 1.70 1.67 1.67 1.75 1.75 1.67 1.76 1.76 1.76 1.81 1.83 1.80 1.77 1.81 1.78 1.73 1.65 1.65 1.62 1.56 1.50 1.54 1.45 1.57 1.56 1.41 1.49 1.37 1.48 1.42 1.63 1.44 1.46 1.37 1.17 1.32 1.22 1.17 1.19 1.20 1.33 1.42 1.54 1.56 1.50 1.73 1.69 1.42 1.43 1.60 1.57 1.40 1.54 1.53 1.67 1.59 1.61 1.67 1.70 1.76 1.80
1.31 1.30 1.35 1.36 1.36 1.42 1.40 1.38 1.35 1.35 1.34 1.36 1.40 1.49 1.51 1.48 1.65 1.63 1.64 1.62 1.62 1.63 1.64 1.59 1.66 1.70 1.71 1.66 1.73 1.75 1.73 1.81 1.74 1.86 1.84 1.74 1.76 1.80 1.79 1.76 1.72 1.72 1.62 1.55 1.52 1.71 1.71 1.68 1.44 1.59 1.48 1.45 1.38 1.53 1.47 1.57 1.43 1.39 1.41 1.22 1.14 1.12 1.17 1.32 1.38 1.37 1.36 1.53 1.66 1.39 1.35 1.46 1.55 1.64 1.61 1.55 1.61 1.65 1.61 1.65 1.68 1.65 1.71 1.76 1.79
1.29 1.32 1.36 1.34 1.35 1.41 1.41 1.40 1.35 1.39 1.36 1.34 1.41 1.45 1.42 1.41 1.45 1.38 1.35 1.36 1.37 1.35 1.39 1.44 1.52 1.49 1.64 1.71 1.75 1.73 1.71 1.79 1.79 1.80 1.87 1.75 1.73 1.76 1.76 1.78 1.77 1.61 1.64 1.76 1.72 1.60 1.39 1.81 1.66 1.55 1.57 1.43 1.46 1.43 1.43 1.64 1.47 1.43 1.35 1.44 1.26 1.18 1.08 1.25 1.20 1.20 1.39 1.47 1.48 1.43 1.38 1.46 1.53 1.44 1.70 1.74 1.66 1.70 1.79 1.73 1.80 1.78 1.74 1.72 1.82
1.24 1.38 1.41 1.37 1.36 1.41 1.41 1.40 1.36 1.39 1.40 1.37 1.42 1.40 1.36 1.39 1.39 1.36 1.35 1.30 1.30 1.38 1.50 1.55 1.58 1.52 1.79 1.63 1.72 1.77 1.76 1.80 1.76 1.80 1.76 1.81 1.78 1.77 1.73 1.76 1.73 1.71 1.62 1.58 1.61 1.66 1.81 1.70 1.73 1.68 1.66 1.57 1.58 1.35 1.42 1.56 1.59 1.60 1.56 1.61 1.50 1.43 1.52 1.36 1.29 1.27 1.18 1.33 1.44 1.36 1.22 1.38 1.52 1.60 1.74 1.60 1.55 1.79 1.84 1.85 1.84 1.75 1.74 1.78 1.84
1.25 1.36 1.44 1.43 1.40 1.40 1.40 1.40 1.39 1.40 1.40 1.39 1.40 1.37 1.32 1.34 1.34 1.36 1.37 1.34 1.38 1.40 1.48 1.54 1.63 1.70 1.72 1.64 1.63 1.68 1.59 1.80 1.83 1.79 1.75 1.73 1.77 1.76 1.74 1.79 1.75 1.80 1.68 1.71 1.69 1.74 1.82 1.78 1.60 1.62 1.53 1.52 1.52 1.60 1.43 1.54 1.34 1.59 1.50 1.43 1.58 1.58 1.40 1.38 1.45 1.26 1.20 1.22 1.26 1.39 1.43 1.45 1.62 1.46 1.59 1.59 1.57 1.68 1.74 1.75 1.80 1.73 1.75 1.80 1.77
1.26 1.29 1.37 1.46 1.48 1.46 1.42 1.43 1.42 1.44 1.45 1.41 1.33 1.35 1.36 1.36 1.36 1.35 1.34 1.46 1.43 1.49 1.52 1.61 1.63 1.67 1.62 1.70 1.66 1.72 1.57 1.60 1.78 1.73 1.71 1.83 1.67 1.77 1.76 1.78 1.74 1.78 1.61 1.73 1.77 1.78 1.70 1.73 1.61 1.54 1.69 1.66 1.71 1.54 1.41 1.48 1.42 1.57 1.56 1.47 1.41 1.32 1.44 1.51 1.48 1.49 1.32 1.26 1.23 1.23 1.26 1.48 1.58 1.55 1.59 1.59 1.61 1.60 1.67 1.71 1.76 1.82 1.79 1.67 1.87
1.32 1.32 1.35 1.45 1.47 1.50 1.45 1.41 1.48 1.48 1.54 1.47 1.36 1.32 1.37 1.39 1.35 1.34 1.38 1.42 1.53 1.50 1.50 1.51 1.60 1.55 1.58 1.63 1.55 1.66 1.64 1.54 1.56 1.70 1.70 1.73 1.72 1.75 1.74 1.76 1.65 1.80 1.78 1.76 1.78 1.65 1.62 1.63 1.52 1.67 1.68 1.56 1.55 1.56 1.54 1.52 1.48 1.50 1.47 1.55 1.36 1.26 1.36 1.39 1.38 1.42 1.43 1.38 1.20 1.27 1.34 1.30 1.28 1.40 1.48 1.60 1.66 1.61 1.71 1.74 1.81 1.75 1.73 1.97 1.99
1.38 1.33 1.32 1.39 1.46 1.50 1.48 1.42 1.51 1.52 1.57 1.54 1.45 1.38 1.37 1.39 1.37 1.38 1.38 1.39 1.51 1.58 1.53 1.52 1.52 1.49 1.48 1.55 1.57 1.50 1.66 1.68 1.68 1.56 1.64 1.62 1.68 1.75 1.79 1.78 1.81 1.86 1.65 1.73 1.69 1.76 1.70 1.74 1.77 1.73 1.64 1.62 1.62 1.60 1.48 1.57 1.59 1.56 1.45 1.49 1.50 1.40 1.35 1.38 1.35 1.39 1.35 1.23 1.25 1.21 1.20 1.23 1.30 1.30 1.42 1.53 1.63 1.69 1.71 1.73 1.90 1.87 1.90 1.86 1.88
Wind_Speed
11 12 11 11 11 10 10 10 11 11 10 10 10 11 11 10 10 10 9 9 9 9 8 8 8 8 8 8 7 7 8 8 8 8 9 9 9 9 9 9 9 9 9 9 9 9 10 10 10 10 10 10 11 11 11 11 11 11 11 11 11 11 12 12 12 12 11 12 12 12 12 12 12 12 12 11 11 11 11 11 10 10 10 10 10
11 11 11 10 10 9 9 9 10 10 10 9 10 10 10 10 9 9 9 9 9 8 8 8 8 8 8 7 7 8 8 8 9 9 9 9 9 9 9 9 9 9 9 9 9 9 10 10 10 10 10 11 11 11 11 11 11 11 11 11 11 12 12 12 12 12 12 12 12 11 12 12 12 12 11 11 11 10 11 10 10 10 10 10 9
11 10 10 9 9 9 9 9 9 9 9 9 9 9 8 9 8 8 8 8 8 8 8 8 8 8 7 7 7 8 8 9 9 9 9 9 9 9 9 9 9 9 9 9 9 9 9 10 10 10 10 11 11 11 11 11 11 11 11 11 12 12 12 12 12 12 12 12 12 11 11 11 12 12 11 11 11 11 11 11 10 10 10 9 9
10 9 9 9 8 8 9 9 9 9 9 9 8 8 8 8 8 8 8 8 8 8 8 8 8 7 7 7 8 8 8 9 9 9 9 9 9 9 9 9 9 9 9 9 9 8 9 9 9 10 10 11 11 11 11 11 11 11 12 12 12 12 12 12 12 11 11 11 11 11 11 11 11 11 11 11 11 11 11 10 10 10 10 10 9
9 9 9 9 9 9 9 9 9 9 9 9 8 8 8 8 8 8 8 8 8 8 8 8 7 7 7 8 8 8 8 9 9 9 9 9 9 9 9 9 9 9 9 9 10 9 8 9 9 10 10 11 11 11 11 11 11 12 12 12 12 11 11 11 11 11 11 10 10 10 10 10 10 10 10 10 10 10 10 10 10 10 10 10 9
9 9 10 9 9 9 9 9 9 9 9 9 9 8 8 8 8 8 8 8 8 8 8 8 7 7 7 7 8 8 8 9 9 9 9 9 9 9 9 9 9 8 8 9 9 9 9 8 9 9 10 10 11 11 11 11 11 12 12 12 11 11 11 11 11 10 10 10 9 9 10 10 10 10 10 10 10 10 10 10 10 10 10 10 10
10 10 10 10 9 9 9 9 9 9 9 9 9 8 8 8 8 8 8 7 7 7 8 8 7 6 7 7 7 8 8 9 9 9 9 9 9 8 9 9 8 8 8 8 9 9 9 9 9 9 9 10 11 11 11 12 11 12 11 11 11 11 11 10 10 10 10 10 10 10 10 10 10 10 10 10 10 10 10 11 11 11 11 11 11
10 10 10 10 9 9 9 8 8 8 8 8 8 8 7 7 7 7 7 6 6 7 7 7 7 6 7 7 7 7 8 8 8 9 8 8 8 8 8 8 8 8 8 7 8 8 9 9 8 9 10 11 11 11 11 11 11 11 11 11 11 11 10 10 10 10 10 10 10 10 11 11 11 11 11 11 11 11 11 11 12 12 12 12 12
10 9 9 9 9 8 8 8 8 7 7 7 7 7 6 6 6 6 6 6 6 6 6 6 6 6 6 6 7 7 8 8 8 8 8 8 8 8 8 8 8 8 8 8 8 8 9 9 8 9 10 11 11 11 11 11 11 11 11 11 10 10 10 10 10 10 10 11 11 11 11 11 11 11 11 11 11 11 12 12 12 13 12 12 11
9 9 8 8 8 7 7 7 7 6 6 6 6 6 6 5 5 6 6 5 6 6 6 6 6 6 6 6 7 7 7 8 8 8 7 7 7 7 7 8 8 9 9 9 8 8 9 9 9 9 10 11 11 11 11 11 10 10 10 11 11 10 10 10 10 10 10 11 11 11 11 11 11 11 11 12 12 12 13 13 13 13 12 11 11
9 8 8 7 7 7 6 6 6 6 6 6 6 5 5 5 5 5 5 5 6 6 6 6 6 6 6 6 7 7 7 8 8 8 7 7 7 7 8 8 8 9 9 9 8 8 9 9 9 9 10 10 11 10 11 11 10 11 11 11 11 11 11 10 10 10 11 11 11 11 11 11 11 12 13 13 13 13 13 13 13 12 11 11 10
8 8 8 7 7 6 6 6 5 5 5 5 5 5 5 5 5 5 5 5 6 6 6 6 6 6 7 7 7 7 8 8 8 8 8 8 9 9 9 9 9 10 10 9 9 9 9 10 10 10 10 10 10 10 10 11 11 12 12 12 12 11 11 10 10 11 11 11 11 12 12 12 13 13 13 13 13 13 13 12 11 11 10 10 9
8 7 7 6 6 6 5 5 5 5 5 5 5 5 5 5 5 5 6 6 6 6 6 6 6 7 7 7 7 7 8 8 9 9 9 9 10 10 10 10 10 10 10 10 10 9 9 10 10 10 10 10 11 10 11 11 12 12 12 12 12 11 11 10 11 11 11 11 12 12 13 13 13 13 13 13 13 12 12 11 10 10 9 9 9
7 7 6 6 6 5 5 5 5 5 5 5 5 5 5 5 5 6 7 7 7 7 7 7 7 7 7 8 8 8 9 9 10 10 11 11 11 11 11 11 11 11 11 10 10 10 10 10 10 10 10 11 11 11 11 12 12 12 12 12 11 11 11 11 11 12 12 12 12 13 13 13 13 12 12 12 12 11 11 10 10 9 9 9 8
7 7 6 6 6 6 5 5 5 5 5 5 5 5 5 5 6 7 7 8 8 9 8 8 8 8 8 9 9 9 10 10 11 11 11 11 11 11 11 11 11 11 10 10 10 10 10 11 11 11 11 11 12 12 12 12 12 12 12 11 11 11 11 11 12 12 12 12 12 12 12 12 12 12 12 12 11 11 10 10 9 9 8 8 8
6 6 6 6 5 5 5 5 5 5 5 5 5 5 5 6 6 7 8 8 9 9 9 9 9 9 9 10 10 10 11 11 11 11 11 11 11 11 11 11 11 11 11 11 10 11 11 11 11 11 12 12 12 12 13 13 12 12 12 11 11 11 12 12 12 12 12 12 12 12 11 11 12 12 12 11 11 10 10 9 8 8 8 8 8
6 7 6 6 5 5 6 5 6 6 6 6 6 6 6 6 6 7 8 8 9 9 9 10 10 10 11 11 11 11 12 12 12 11 11 11 11 11 11 11 11 11 11 10 11 11 11 12 12 12 13 13 13 13 13 12 12 12 12 12 12 12 12 12 12 12 12 12 12 12 11 12 11 11 11 11 10 10 9 9 8 8 8 7 7
5 6 6 6 6 6 6 6 6 6 6 6 7 7 7 7 7 8 8 9 9 10 10 11 11 11 12 12 12 12 12 12 12 11 11 11 11 11 11 11 11 11 10 10 11 12 12 13 13 13 13 13 13 13 13 12 12 12 12 12 13 12 11 11 11 11 11 11 11 11 11 11 11 11 11 10 10 9 9 8 8 8 8 8 8
4 5 7 6 5 6 6 6 6 7 7 7 7 8 8 8 8 9 9 10 10 11 11 12 12 12 13 13 13 13 13 12 12 12 11 11 11 11 11 11 11 11 11 11 12 12 13 13 14 14 13 13 13 13 12 12 12 12 12 12 12 12 11 11 11 11 11 11 11 11 11 11 11 11 11 10 10 9 9 9 8 8 8 8 8
3 5 6 6 5 5 5 6 6 7 7 8 8 8 8 9 9 10 10 11 11 12 12 13 13 13 13 13 13 13 13 12 12 12 12 11 11 11 11 11 12 12 12 12 13 13 14 14 14 13 13 13 13 13 12 12 12 12 11 11 11 10 10 10 10 11 11 11 11 11 11 11 11 11 11 10 10 9 9 9 8 8 8 8 8
4 4 5 5 6 6 6 6 6 7 8 8 9 9 9 9 10 11 11 12 12 13 13 14 14 14 14 14 13 13 13 12 12 12 12 11 11 11 12 12 12 12 13 13 14 14 14 14 13 13 13 12 12 12 12 12 12 11 11 10 10 9 9 10 10 11 11 11 11 11 11 11 11 11 10 10 9 9 9 9 8 8 8 8 8
4 4 5 5 6 6 6 7 8 8 9 10 10 10 10 10 11 11 12 13 13 14 14 14 14 14 14 13 13 13 13 13 12 12 12 12 12 12 12 13 13 13 14 14 14 14 14 13 12 12 12 12 12 11 11 11 10 10 10 9 9 10 9 10 10 11 11 11 10 11 11 11 10 10 10 9 9 9 9 9 8 9 9 9 9
5 5 5 5 6 7 7 8 8 9 11 11 11 11 11 11 11 12 12 13 14 14 14 15 15 14 13 13 13 13 13 13 12 12 13 13 13 13 13 14 14 14 15 14 14 13 13 12 12 11 11 11 10 10 9 9 8 8 9 9 10 10 10 10 11 11 11 11 10 11 11 10 10 10 10 9 9 9 9 8 8 9 9 9 9
5 6 6 6 7 7 8 9 9 9 11 12 11 11 11 11 12 12 13 13 14 14 15 14 14 13 13 13 13 13 13 13 13 14 14 14 14 14 14 15 15 15 14 14 13 13 12 11 11 10 10 10 9 9 9 9 8 8 9 10 10 11 11 11 11 11 11 10 10 11 10 10 10 10 10 9 9 8 8 8 8 8 9 9 9
6 6 6 7 7 8 8 9 9 10 10 12 12 12 12 12 13 13 13 14 14 15 15 14 14 13 13 13 14 14 14 14 14 14 14 14 15 15 15 15 15 14 13 13 12 12 11 10 10 10 9 9 9 9 10 10 10 10 10 11 11 11 11 11 10 11 11 10 11 11 11 10 10 9 9 9 8 8 8 8 8 8 9 9 9
7 7 7 8 8 8 9 9 10 10 10 11 12 12 12 12 13 13 14 14 14 15 14 14 14 14 14 14 14 14 13 13 13 14 14 14 14 14 14 14 13 13 12 11 11 10 10 10 9 10 10 11 11 11 11 10 11 11 11 11 11 10 10 10 11 11 11 10 11 11 10 10 9 9 8 8 8 8 8 8 8 8 8 9 9
7 8 8 8 8 9 9 9 10 10 11 11 12 12 12 13 13 14 14 14 14 14 14 14 14 14 14 14 14 13 13 13 14 14 13 13 13 13 13 13 12 12 11 11 11 10 10 10 10 11 11 11 11 11 11 10 11 11 11 11 10 10 10 10 11 11 11 10 11 10 10 9 9 8 8 8 7 7 7 7 7 7 8 8 9
8 8 8 9 9 9 9 10 10 10 11 11 12 12 12 13 14 14 14 14 14 14 14 14 14 14 14 14 14 14 14 13 13 13 13 12 12 13 13 12 12 11 11 11 11 10 11 11 11 11 11 11 11 11 11 11 10 11 11 11 10 10 10 10 10 11 11 10 10 10 9 8 8 8 7 7 6 6 6 6 6 7 7 8 8
9 9 9 9 10 10 10 10 10 11 11 11 11 12 12 13 14 14 14 14 14 14 14 14 14 14 14 13 13 13 13 13 12 12 12 12 12 12 12 12 12 11 11 11 11 11 11 11 11 11 10 11 11 10 10 10 10 10 10 11 10 10 10 10 10 10 10 10 9 9 8 8 7 7 7 6 6 6 6 6 6 6 7 7 8
9 9 10 10 10 10 10 10 10 11 11 11 11 12 12 13 13 14 14 13 14 14 14 14 14 14 13 13 13 13 12 12 12 12 12 11 11 12 12 12 12 11 11 11 11 11 11 11 11 10 10 10 10 9 9 9 9 10 10 10 10 10 10 9 10 10 10 9 9 9 8 7 7 6 6 5 5 5 5 6 6 6 7 7 8
9 10 10 10 10 10 10 10 10 11 11 11 12 12 12 13 13 13 13 13 14 14 13 13 14 13 13 13 12 12 12 12 11 11 11 11 11 11 11 11 11 11 12 11 11 11 11 10 10 10 9 10 10 9 9 9 9 9 9 10 10 9 9 9 9 9 9 8 8 8 7 7 6 6 5 5 4 4 5 5 6 6 7 7 8
10 10 10 10 11 11 11 11 10 11 11 12 12 12 13 13 13 13 13 14 13 13 13 13 13 13 13 13 12 11 11 11 11 11 11 11 11 11 11 11 11 11 11 11 10 10 10 10 10 9 9 9 9 9 9 9 8 8 8 9 9 8 8 8 8 8 8 7 6 6 6 6 5 5 4 4 4 4 4 5 5 6 6 7 7
10 10 11 11 11 11 11 11 11 11 11 12 12 12 13 13 13 13 14 14 13 13 13 13 13 13 13 12 11 11 11 11 11 11 11 11 11 11 11 11 11 11 10 10 10 9 9 10 9 8 8 9 9 8 8 8 8 8 8 8 8 7 7 7 7 7 7 6 6 5 5 4 4 4 4 3 4 4 4 4 5 6 6 7 7
10 10 11 11 11 11 11 11 11 11 12 12 12 12 12 12 13 13 13 13 13 13 13 13 13 13 12 11 11 11 11 11 11 10 10 11 11 10 10 10 10 10 10 9 9 9 9 9 9 8 8 8 8 8 8 7 7 7 7 7 7 7 6 6 6 6 5 5 5 4 3 3 2 2 3 3 3 4 4 5 5 5 6 7 8
10 11 11 11 11 11 11 11 11 11 12 12 12 12 12 13 13 13 13 13 13 13 13 13 12 12 11 11 10 10 10 11 11 10 10 10 10 10 10 10 9 9 9 8 8 8 8 7 8 8 8 8 8 7 7 7 6 6 6 6 6 6 6 5 5 5 4 5 4 3 3 2 1 2 2 2 3 3 4 5 5 5 6 7 8
11 11 11 11 11 11 11 11 11 12 12 12 12 12 12 12 13 13 12 12 12 12 12 12 11 11 11 10 10 10 10 10 10 10 9 10 10 9 9 9 9 8 8 8 7 8 7 7 6 6 7 7 7 7 7 6 6 6 6 5 5 5 5 4 4 4 4 4 3 2 2 1 1 1 2 2 3 3 4 5 5 6 6 7 8
11 12 12 11 11 11 11 12 12 12 12 12 12 12 12 12 12 12 12 12 12 11 11 11 11 10 10 10 10 10 10 10 10 10 9 9 9 9 9 9 8 8 8 7 7 7 7 7 6 6 6 6 6 6 6 6 5 5 5 5 4 4 4 3 3 3 3 2 1 1 2 0 1 1 2 2 3 4 4 5 5 6 7 8 8
12 12 12 12 12 11 12 12 12 12 12 12 12 11 12 12 12 12 12 11 11 11 10 10 10 10 10 10 10 10 10 10 10 9 9 8 9 8 8 8 7 7 7 6 7 6 6 6 6 6 5 4 5 5 5 5 5 4 4 4 4 3 3 3 2 2 2 1 1 0 1 0 1 1 3 3 3 4 5 6 6 7 8 8 9
12 12 12 12 12 11 11 12 12 12 12 12 11 11 11 11 11 11 11 10 10 10 10 9 9 10 10 10 9 9 9 9 9 9 8 8 8 8 8 7 7 7 6 6 6 5 5 5 5 6 5 4 5 5 5 4 4 4 4 4 3 3 3 3 3 2 1 1 1 1 1 1 1 2 2 3 4 5 5 6 7 8 8 8 8
12 13 12 12 12 11 12 12 12 12 11 11 11 11 11 10 11 11 10 10 10 10 10 9 9 9 9 9 9 9 9 9 9 9 8 7 8 7 7 7 7 7 6 6 6 5 5 5 5 5 4 4 4 4 4 3 4 4 3 4 3 3 2 2 2 2 1 1 1 1 1 1 2 3 3 3 5 6 5 6 7 7 7 8 8
12 13 13 12 12 12 12 12 12 12 11 11 11 11 11 10 11 11 10 10 10 9 9 9 9 9 9 9 9 9 9 9 9 8 8 7 7 7 7 7 6 6 6 6 5 5 5 4 5 4 3 4 4 4 3 3 3 3 3 3 3 3 2 1 1 1 1 1 1 1 1 1 3 4 3 4 5 6 6 7 7 7 7 8 9
13 13 13 12 12 12 12 12 12 12 12 11 11 11 10 10 10 10 10 10 10 9 9 9 9 9 9 9 8 9 9 9 8 8 8 7 7 6 6 6 6 6 6 6 5 5 4 4 4 4 3 4 3 3 3 3 2 3 3 2 2 2 2 1 1 1 0 1 1 2 2 2 3 3 3 5 5 5 7 6 6 7 8 8 9
13 14 13 13 12 12 12 12 12 12 12 11 11 11 11 10 10 10 10 10 9 9 9 9 9 9 9 9 8 9 9 8 8 8 7 7 6 6 6 6 6 6 6 5 5 5 4 3 4 3 3 4 3 2 2 2 1 2 2 1 2 1 1 1 1 1 1 1 1 2 2 2 3 2 3 6 5 6 7 6 6 7 8 8 8
13 14 14 14 13 12 12 12 12 12 12 12 11 11 11 11 10 10 9 9 9 9 9 9 9 9 9 8 8 8 8 8 8 7 7 7 6 6 6 5 5 5 5 5 5 4 4 3 3 3 3 3 3 3 2 1 1 1 2 1 1 1 1 2 2 2 2 2 2 2 2 3 4 3 4 5 5 6 7 6 6 6 7 8 8
14 14 14 14 13 13 13 13 12 12 12 12 12 11 11 11 10 10 9 9 9 9 9 9 8 8 8 8 8 8 8 8 7 7 7 7 7 6 6 5 5 5 5 4 4 4 4 4 4 3 2 2 3 2 2 2 1 1 1 1 1 1 2 2 1 2 3 3 3 3 3 5 5 5 6 5 4 6 6 6 6 6 7 8 9
14 14 14 14 13 13 13 13 13 12 12 12 12 11 11 11 11 10 10 9 9 9 9 9 8 8 8 8 8 8 8 8 7 7 7 7 7 6 6 5 5 5 5 4 4 3 3 3 3 3 2 2 2 2 2 2 1 1 1 1 1 1 1 2 1 2 3 4 4 4 4 4 4 5 5 3 5 7 6 6 7 7 7 8 8
15 15 14 14 14 14 14 14 13 13 12 13 13 12 12 11 11 10 10 10 9 9 9 8 8 8 8 8 8 8 8 7 7 7 7 7 6 6 6 5 5 4 4 4 4 4 3 3 3 3 2 2 1 1 2 1 1 1 1 1 1 2 2 2 2 3 3 4 4 4 4 4 5 6 5 4 6 7 5 6 7 7 8 7 8
15 15 15 15 15 15 15 14 14 13 13 13 13 13 12 12 11 11 10 10 9 9 9 8 8 7 8 8 7 7 7 7 7 7 7 6 6 6 6 6 5 5 5 4 4 3 3 3 3 3 2 2 1 1 1 1 1 1 1 1 2 2 2 2 3 3 3 4 4 4 4 5 5 5 5 5 7 6 6 7 7 8 8 7 8
16 16 15 15 15 15 16 15 14 14 13 13 14 13 12 12 12 11 10 9 9 9 9 8 8 7 7 7 7 7 7 7 7 6 7 6 6 6 6 6 5 5 5 4 4 3 3 3 3 3 2 2 2 1 1 1 2 1 0 1 2 2 3 3 3 3 3 4 4 4 5 6 5 5 5 6 7 7 7 7 7 8 8 7 7
16 16 16 16 16 15 16 16 15 14 14 14 14 13 13 12 12 11 10 10 9 9 9 8 8 8 7 7 7 7 6 6 6 6 6 6 6 6 6 5 5 5 4 4 4 4 3 3 3 3 3 2 2 2 2 2 2 2 2 2 2 3 3 3 3 3 3 4 5 5 5 5 5 5 6 7 7 7 7 7 7 7 7 7 7
17 17 16 16 16 16 16 16 16 15 14 14 14 14 13 12 12 11 11 10 9 9 9 8 8 8 8 7 7 6 6 6 6 6 6 6 6 6 5 5 5 4 4 4 4 4 4 4 4 3 3 3 3 2 2 2 3 3 3 3 3 3 3 3 3 4 4 5 5 5 6 6 6 6 7 7 7 7 7 7 7 7 7 8 7
Wind_Direction
131 128 126 125 124 121 120 121 123 122 120 118 118 122 125 126 126 128 131 132 134 133 127 125 124 122 120 121 123 124 127 124 120 119 117 115 114 111 110 108 106 104 103 106 108 108 108 108 107 105 104 103 103 104 104 104 104 104 103 103 102 103 102 101 100 99 99 97 96 96 96 97 97 96 96 95 96 97 99 100 100 98 95 95 95
133 130 128 128 127 125 125 126 127 128 126 124 122 123 125 127 127 129 131 132 133 130 125 123 124 123 121 122 125 126 127 125 122 121 120 120 117 116 115 114 112 107 104 101 102 106 110 109 107 105 104 103 103 104 105 105 104 104 104 104 104 103 103 102 102 100 99 97 96 96 96 96 96 97 97 96 95 96 96 97 98 97 95 94 94
134 132 131 131 130 129 129 129 131 134 133 131 130 129 130 132 130 129 130 131 130 127 125 124 124 124 122 123 126 127 127 126 124 123 124 122 120 118 116 116 114 110 108 103 100 104 109 110 108 106 105 104 104 104 104 104 104 104 105 105 104 104 104 103 103 101 100 98 96 95 95 94 93 95 95 96 96 96 95 93 93 93 93 92 93
132 133 134 134 133 132 130 129 130 134 136 134 132 132 134 136 134 129 129 131 129 128 127 126 126 124 122 122 126 128 127 125 124 126 126 124 123 120 116 116 114 112 110 106 105 104 103 106 108 106 105 105 104 104 104 104 104 105 106 106 105 105 105 104 103 102 101 100 98 95 94 92 91 92 93 95 96 95 94 92 91 91 91 91 91
131 132 134 133 132 131 131 129 128 131 134 135 133 132 133 134 133 130 129 131 130 129 129 128 127 125 121 121 126 128 126 126 126 128 126 125 125 121 118 116 114 113 110 108 108 105 100 100 104 105 106 106 105 105 104 104 105 106 107 107 107 107 106 104 103 101 100 99 97 95 94 94 92 93 94 95 95 94 93 92 91 91 91 91 92
130 129 130 131 130 129 131 129 127 129 133 135 134 132 133 133 132 132 132 131 131 129 129 129 127 124 120 122 128 128 126 126 128 128 127 127 126 122 120 117 116 114 113 111 107 105 103 100 102 105 106 106 105 105 105 105 106 107 107 108 108 108 107 105 103 101 100 98 97 96 96 94 94 94 94 94 93 92 91 91 92 92 92 93 93
128 126 127 129 129 128 129 130 129 130 132 134 135 135 135 134 133 135 137 135 134 132 133 131 129 126 124 129 130 128 127 126 128 129 128 129 128 124 122 120 118 116 115 115 110 106 105 103 105 108 107 105 105 105 105 105 106 107 108 109 109 108 107 104 102 102 101 99 100 99 97 94 93 94 93 92 92 91 90 91 92 93 93 93 93
127 125 126 129 128 128 128 129 131 131 133 135 136 139 139 138 137 139 141 141 140 138 138 135 133 133 135 137 131 129 130 129 130 131 131 131 129 125 124 123 121 120 119 116 114 110 107 107 109 110 107 104 104 105 106 105 106 107 108 109 109 108 106 105 104 103 102 100 100 100 97 95 94 94 94 93 92 91 91 92 94 94 93 93 92
127 126 127 129 128 129 131 130 131 132 135 138 139 143 146 146 146 147 148 149 147 146 144 138 138 138 139 140 135 135 133 132 133 133 131 129 129 127 125 126 126 125 121 116 116 112 109 108 110 110 107 103 104 105 105 105 106 107 109 110 109 108 106 107 106 103 102 100 100 98 96 96 95 94 95 94 93 92 94 95 96 94 93 92 91
127 127 127 129 129 131 133 133 134 135 138 141 142 146 151 152 153 155 156 158 155 154 151 144 143 142 141 139 138 139 134 133 133 131 129 128 129 129 128 128 127 127 124 118 115 112 109 109 109 107 105 102 103 104 104 105 106 108 109 110 110 110 108 107 104 102 101 99 99 96 95 96 96 95 96 96 95 95 96 96 95 93 92 90 88
128 128 127 129 132 132 135 137 138 139 141 143 145 147 152 155 157 160 163 165 160 155 154 149 147 146 142 138 137 137 134 133 131 129 127 127 128 129 128 127 126 126 126 119 113 112 110 110 110 107 104 102 103 103 104 105 106 107 108 110 111 111 109 106 103 102 100 99 98 96 96 97 96 97 98 97 98 98 97 95 93 92 90 87 84
131 130 128 131 134 135 139 140 141 141 143 144 147 150 154 158 158 161 163 164 160 153 154 154 149 145 140 137 137 135 132 132 129 127 125 124 125 127 126 126 125 123 123 118 112 111 109 110 111 108 105 103 104 105 105 106 106 107 108 111 111 111 109 104 102 103 101 100 99 98 98 98 98 99 99 99 100 99 97 95 92 90 86 82 79
133 133 132 133 135 138 141 142 144 145 148 150 152 156 158 157 155 158 158 159 159 154 155 154 147 143 138 136 136 133 131 130 128 125 124 124 124 125 125 125 123 121 121 117 111 111 109 109 110 108 105 104 105 106 107 108 108 108 109 111 110 110 107 102 103 104 102 101 100 100 100 99 99 100 100 101 100 99 96 94 91 86 82 77 74
132 130 131 134 135 138 141 143 145 148 152 154 155 157 157 153 152 155 152 152 155 153 153 149 142 139 136 134 133 131 130 129 126 124 124 123 123 123 123 123 124 122 120 116 112 110 108 109 111 109 106 106 107 108 110 110 109 109 110 111 110 108 105 102 104 105 103 103 102 102 101 100 101 101 102 102 100 98 95 92 88 83 78 73 69
131 129 128 132 136 137 139 142 144 146 149 151 152 151 153 150 148 149 147 146 147 147 147 143 138 134 133 132 131 130 129 129 126 125 125 124 123 123 123 123 123 122 120 117 112 108 108 111 113 111 109 108 109 111 112 111 110 110 110 110 110 109 107 105 105 105 104 103 103 103 103 101 102 104 104 102 100 97 93 89 85 81 76 71 66
135 133 128 131 135 138 141 143 145 145 147 147 147 146 146 145 143 142 140 139 139 138 138 136 133 131 130 129 129 127 127 128 127 126 126 125 125 126 125 123 122 121 118 116 113 110 111 114 114 113 112 111 112 112 113 111 110 110 109 110 111 111 109 106 106 106 104 104 104 104 104 104 104 105 104 102 99 96 92 88 84 79 73 68 64
133 124 124 133 132 137 140 141 142 141 144 143 142 143 141 141 139 136 134 133 133 132 132 131 130 129 128 128 127 126 127 127 127 126 126 125 125 125 125 124 122 120 116 114 113 114 116 117 116 115 114 114 114 113 113 112 111 109 109 110 111 111 109 109 108 106 106 106 104 105 106 105 105 106 105 103 99 95 91 86 82 76 70 65 61
131 118 120 130 131 137 137 137 139 136 138 138 137 136 135 136 135 133 132 130 130 130 130 129 128 127 126 127 126 125 126 126 126 126 125 125 123 123 123 123 122 120 117 115 115 117 118 118 117 115 115 114 114 113 112 111 111 109 109 109 110 110 110 111 110 108 108 107 106 108 109 106 106 106 106 103 99 94 90 84 78 73 68 64 60
126 113 113 120 126 133 132 132 136 133 132 132 132 131 131 132 132 131 129 129 130 130 130 129 128 128 127 127 126 125 124 124 124 124 123 124 123 121 120 120 121 121 120 118 118 118 118 118 116 115 115 114 114 113 112 111 111 111 111 111 110 110 110 111 111 110 109 108 109 109 109 108 107 107 105 102 97 92 88 82 76 71 67 63 58
118 107 106 111 118 122 123 124 127 124 122 126 129 129 130 130 130 129 128 128 129 129 130 130 130 130 128 126 125 123 121 120 121 122 123 124 123 121 120 121 122 121 120 119 119 119 118 117 117 116 116 115 115 113 112 111 111 112 113 114 113 111 111 110 111 110 109 110 112 110 110 109 108 106 104 100 95 90 85 80 74 68 63 58 52
115 106 101 106 111 113 114 115 117 115 115 121 126 127 128 129 129 128 128 128 129 130 130 130 130 129 128 126 124 122 120 118 118 120 122 123 122 122 122 122 122 121 121 121 120 119 119 118 118 118 117 117 116 115 113 112 112 113 114 116 115 114 113 110 109 109 110 113 112 110 111 110 107 106 102 97 92 87 83 77 71 64 59 54 48
115 109 102 104 106 107 109 109 113 113 113 118 123 125 126 127 127 127 128 128 130 131 130 129 128 127 127 126 123 122 119 117 117 118 120 121 122 122 122 121 121 121 121 121 120 120 119 119 119 118 118 118 118 118 119 117 116 115 115 115 115 115 112 109 110 111 113 114 111 110 112 109 107 104 100 96 92 87 82 74 68 62 57 52 46
118 113 108 106 107 108 109 109 113 113 115 117 119 122 125 126 124 125 126 128 130 129 128 128 128 127 126 124 122 121 119 117 116 117 118 119 120 120 120 119 120 120 120 120 120 120 119 118 118 118 118 117 117 121 125 125 121 118 117 115 115 114 111 111 112 112 114 113 111 112 112 109 106 103 100 97 92 86 80 72 66 59 54 49 44
119 114 110 109 110 111 110 111 113 114 117 117 117 119 123 124 123 124 125 127 127 127 128 127 128 127 125 123 122 121 119 118 116 116 117 117 118 118 118 118 119 119 120 119 118 119 118 117 117 118 117 117 118 122 123 124 123 120 118 116 114 113 112 113 113 113 115 113 112 114 112 109 106 104 101 97 91 84 77 70 63 57 51 47 43
121 116 113 113 114 114 113 113 114 116 117 115 115 118 121 122 122 123 125 127 127 126 127 127 127 127 125 124 123 122 120 119 118 117 117 117 117 117 118 118 118 118 119 119 117 117 117 116 116 117 118 119 118 118 118 118 117 115 114 114 113 113 113 113 113 114 116 113 114 115 112 109 108 106 101 95 88 81 74 66 60 54 49 44 41
124 120 116 117 117 116 115 115 115 114 114 113 114 117 120 120 120 122 124 125 126 126 126 127 127 126 125 125 124 124 122 120 120 120 120 119 119 119 119 119 119 118 118 119 118 116 115 115 116 117 118 116 114 115 116 115 115 114 113 114 114 114 114 114 116 116 116 114 115 116 113 111 109 105 99 91 84 77 70 63 57 51 46 42 39
124 122 120 120 120 118 116 115 114 112 112 113 114 116 118 120 121 122 123 124 126 126 126 127 126 125 126 126 125 124 122 122 121 121 121 121 122 121 120 120 120 119 118 118 117 116 115 115 116 117 117 115 115 116 114 112 115 116 115 116 115 115 114 115 117 118 117 114 115 116 113 111 107 101 95 87 79 72 65 59 53 47 43 39 36
126 125 124 123 122 121 119 117 115 114 114 115 116 117 118 121 122 123 124 126 127 126 127 128 126 127 128 127 126 124 123 123 122 121 121 122 122 120 119 120 119 119 119 118 116 115 116 118 118 118 117 115 116 116 115 114 115 116 116 116 116 116 116 117 119 121 119 116 115 116 114 110 105 99 91 84 75 67 60 54 49 43 39 35 32
128 128 126 125 125 124 122 120 119 117 117 118 118 118 119 121 123 125 126 127 127 127 128 128 127 128 128 127 126 125 124 123 123 123 123 123 121 119 118 118 118 119 119 117 116 117 118 119 120 119 117 116 116 116 117 116 114 116 118 119 118 116 117 119 121 122 121 118 114 114 114 110 103 96 88 81 73 64 57 51 45 40 35 31 28
131 130 129 128 127 126 125 123 121 120 119 119 121 121 122 123 125 127 127 128 128 128 129 129 129 129 129 128 126 125 125 124 125 124 124 123 121 119 117 117 119 119 118 116 116 118 120 120 120 119 118 117 116 116 116 115 114 116 119 120 118 116 118 120 120 121 121 119 116 113 112 109 103 95 87 78 70 62 55 48 42 36 30 26 23
133 132 131 130 130 129 127 126 124 123 122 121 123 124 124 125 127 128 129 129 130 130 131 131 130 130 130 129 126 125 126 126 126 126 125 124 121 118 117 118 119 120 118 117 117 118 120 121 120 120 119 117 116 116 116 115 114 118 122 121 120 120 121 123 120 117 117 118 118 113 108 108 103 95 87 75 66 58 50 43 35 29 23 18 15
135 135 134 133 133 132 130 129 127 125 124 124 125 125 126 127 128 129 130 131 132 132 131 131 130 131 131 130 127 126 127 129 127 127 127 125 123 120 118 119 121 121 119 117 119 120 121 121 120 120 119 117 116 118 118 116 116 118 122 122 121 121 123 124 119 115 119 119 118 116 109 104 98 90 83 68 58 50 40 32 25 19 14 9 7
138 138 137 137 135 133 132 131 129 127 127 126 126 127 128 128 129 130 131 132 133 132 131 131 131 132 132 131 129 128 128 130 129 129 129 126 124 122 120 120 122 123 121 120 122 122 123 124 123 122 121 119 118 119 118 117 118 120 123 126 126 126 124 121 118 119 127 124 114 114 112 100 91 83 73 57 44 35 26 18 12 7 3 360 358
141 141 141 139 137 136 135 133 132 130 129 128 128 129 130 129 129 130 132 133 132 132 131 132 133 133 133 132 131 131 131 131 131 130 129 127 125 123 122 122 123 125 126 125 124 123 123 125 126 121 119 119 118 120 121 120 121 122 124 127 132 135 128 120 122 125 125 125 118 114 113 97 84 67 51 42 32 24 13 7 3 359 356 354 353
144 144 143 142 140 139 139 137 135 133 131 131 130 131 132 131 132 132 133 134 134 134 134 134 135 135 135 134 133 133 133 133 132 131 129 129 127 125 124 125 126 127 129 127 124 123 123 125 126 122 120 118 117 118 119 122 125 128 126 125 130 132 129 125 131 132 121 126 125 114 113 98 82 52 30 22 14 15 12 3 0 358 354 353 352
148 147 145 145 143 142 141 140 139 136 134 133 133 133 133 133 134 135 136 136 136 136 137 138 138 138 138 138 137 137 136 136 135 133 133 132 129 127 127 128 127 128 131 130 126 125 125 126 124 123 124 121 119 120 118 119 124 131 131 130 132 131 135 134 133 134 122 125 127 122 133 104 59 34 15 13 6 7 9 359 353 353 351 349 348
151 150 149 148 146 146 145 144 142 140 138 137 137 136 136 136 138 138 139 139 140 140 141 142 141 141 141 141 141 141 139 139 138 136 136 135 131 130 129 130 129 130 134 133 129 127 127 129 127 127 129 126 122 121 121 120 120 130 133 135 139 138 142 137 128 134 133 140 146 157 172 106 38 19 357 358 358 358 358 352 345 344 345 343 341
153 153 153 151 149 149 149 147 146 144 142 142 141 140 139 140 141 142 143 143 144 144 144 145 144 144 144 144 144 144 143 143 142 139 138 136 132 130 130 130 131 131 134 134 131 128 128 130 133 134 136 131 123 122 125 123 121 128 133 137 146 151 150 148 150 157 163 173 193 190 168 7 333 310 341 342 334 343 348 346 344 343 342 341 339
156 156 155 154 152 152 151 150 150 148 146 146 143 143 143 142 144 144 145 147 146 146 146 147 146 145 146 146 145 146 147 146 145 143 141 136 134 133 132 131 132 132 131 134 133 131 130 128 134 138 138 135 126 125 128 127 128 130 131 138 150 161 156 161 179 190 194 187 221 275 250 313 318 302 337 349 334 336 338 336 342 346 343 342 341
159 158 157 157 155 154 154 154 154 153 151 150 147 146 146 145 146 146 147 148 148 148 148 148 147 145 146 148 148 150 151 149 148 147 143 139 136 136 136 132 132 133 128 129 132 133 135 132 136 140 142 144 138 137 141 142 141 140 140 143 151 162 160 166 189 206 220 194 212 311 276 276 347 336 329 343 343 340 335 331 335 343 342 342 342
161 161 161 161 159 158 157 157 157 157 155 153 151 150 149 148 148 148 149 148 149 150 149 149 148 144 146 149 149 152 154 152 152 150 148 145 142 140 141 137 134 135 131 129 133 135 138 137 144 150 150 149 143 142 148 148 147 154 161 157 158 163 166 178 192 212 239 235 239 310 306 285 331 334 325 329 337 339 334 332 333 335 337 339 340
165 165 165 164 163 162 160 160 159 159 159 157 155 154 152 151 149 149 149 148 150 152 151 152 150 146 149 150 150 155 156 156 156 154 152 150 148 146 146 144 139 140 140 137 138 141 142 141 147 153 150 151 152 143 142 154 170 168 164 171 177 172 183 214 234 219 237 301 267 287 298 300 311 310 320 328 332 338 334 330 333 335 336 338 340
169 168 169 167 166 165 163 163 162 162 161 161 159 157 155 153 151 149 148 148 151 152 151 151 149 149 154 154 155 160 160 159 159 158 157 154 153 150 149 149 145 146 147 143 143 145 147 147 145 144 147 154 162 156 149 168 182 152 150 168 180 188 240 268 280 268 266 299 308 309 305 317 316 296 322 332 332 337 333 326 329 336 338 339 341
173 172 172 171 170 168 167 166 165 165 165 165 163 160 158 155 152 150 147 146 148 146 147 150 150 150 155 157 159 162 162 163 164 164 163 161 158 155 153 154 153 154 154 152 151 150 152 152 146 148 156 160 162 166 170 170 135 133 162 176 159 186 248 280 287 277 283 307 334 333 328 330 324 310 323 332 335 337 335 332 332 337 337 335 338
177 176 175 174 173 171 170 169 168 168 168 168 166 163 162 158 154 152 148 146 147 146 148 151 151 152 155 158 160 162 162 165 166 165 166 166 165 162 160 159 158 159 161 161 161 158 156 154 154 158 165 166 165 172 181 171 142 139 182 199 186 203 247 276 285 286 294 315 325 306 308 323 319 313 317 323 337 339 339 340 338 338 338 336 338
181 179 178 177 175 173 173 172 170 170 170 171 168 166 165 162 159 157 154 152 152 151 152 152 152 156 155 153 156 160 162 164 165 165 166 168 168 167 166 165 163 164 167 170 171 172 168 160 158 159 156 161 168 182 193 181 158 168 191 196 220 243 271 288 299 310 302 312 325 307 298 314 317 318 320 322 333 334 334 337 343 348 345 341 343
183 182 180 179 177 175 174 174 173 172 172 172 171 168 167 166 163 161 159 158 156 154 153 152 153 156 151 149 153 157 160 163 164 165 167 168 169 171 172 171 171 172 172 176 181 181 172 160 163 167 168 175 177 192 208 204 171 186 202 207 249 267 290 298 299 317 309 307 322 315 302 308 315 322 327 331 334 335 335 337 345 351 347 344 348
185 184 183 182 180 177 176 176 175 174 174 174 173 171 170 170 168 166 163 162 160 157 155 154 154 153 149 149 153 155 159 162 163 167 170 171 173 175 178 178 178 180 179 181 188 188 172 165 179 189 192 196 196 208 224 232 215 168 176 255 289 290 288 291 292 305 313 317 323 322 322 321 318 322 328 331 336 341 342 342 345 346 345 345 349
187 186 186 184 182 180 178 178 178 177 176 176 176 175 174 173 172 171 168 165 163 162 161 158 157 156 154 155 155 155 159 163 165 169 172 174 178 178 180 183 183 185 187 189 190 189 185 186 192 193 197 206 214 221 225 236 251 273 288 260 284 294 290 294 296 294 305 320 323 322 327 324 318 325 333 333 336 339 338 341 343 345 347 346 348
189 188 187 186 184 182 181 181 181 180 179 179 178 178 177 177 176 175 174 171 167 166 165 163 162 163 162 163 163 161 162 166 168 172 174 176 179 179 180 185 186 188 193 195 195 195 198 199 197 199 212 221 223 226 231 241 253 269 278 267 271 283 288 298 305 305 305 308 311 315 319 318 319 327 331 328 331 335 336 340 340 341 347 351 355
190 189 189 188 186 185 184 183 184 183 182 182 181 181 180 180 180 179 178 176 174 171 170 170 171 171 170 168 169 168 167 169 170 172 176 178 179 180 181 183 185 188 192 196 200 205 208 202 197 206 220 223 224 230 237 245 250 257 264 262 264 274 282 293 301 305 303 302 308 312 312 314 317 322 325 325 329 334 336 340 343 342 349 356 358